Location: Bathurst
(33.4193°S, 149.5775°E)
Time: 19:28:04
(UTC+10:00)

Explorer 11/Cluster Stage 4 - Visible Passes

Search period start: 15 June 2021 00:00
Search period end: 25 June 2021 00:00
Orbit: 467 x 1257 km, 28.8° (Epoch: 14 June)

Date Brightness Start Highest point End Pass type
(mag) Time Alt. Az. Time Alt. Az. Time Alt. Az.
15 Jun 7.2 18:12:19 10° NW 18:16:40 40° NNE 18:20:08 19° ENE visible
15 Jun 8.3 19:59:45 10° WNW 20:02:15 29° WNW 20:02:15 29° WNW visible
16 Jun 7.1 18:01:25 10° WNW 18:05:38 42° NNE 18:09:40 15° ENE visible
16 Jun 8.0 19:48:54 10° WNW 19:51:47 34° WNW 19:51:47 34° WNW visible
17 Jun 7.0 17:50:31 10° WNW 17:54:36 43° N 17:59:15 12° E visible
17 Jun 7.6 19:38:03 10° W 19:41:22 39° NW 19:41:22 39° NW visible
18 Jun 6.9 17:39:38 10° WNW 17:43:36 44° N 17:48:25 10° E visible
18 Jun 7.3 19:27:13 10° W 19:30:58 43° NW 19:30:58 43° NW visible
19 Jun 6.8 17:28:46 10° WNW 17:32:37 44° N 17:37:14 10° ENE visible
19 Jun 7.1 19:16:24 10° W 19:20:37 44° NNW 19:20:37 44° NNW visible
20 Jun 7.1 19:05:37 10° WNW 19:09:46 39° N 19:10:20 38° N visible
21 Jun 7.3 18:54:50 10° WNW 18:58:45 35° N 19:00:07 29° NNE visible
22 Jun 7.5 18:44:05 10° WNW 18:47:45 30° NNW 18:50:00 21° NNE visible
23 Jun 7.7 18:33:22 10° WNW 18:36:47 26° NNW 18:39:59 13° NE visible
24 Jun 7.9 18:22:40 10° WNW 18:25:47 22° NNW 18:29:17 10° NE visible
